Hourly Data Report for September 06, 2017

All times are specified in Local Standard Time (LST). Add 1 hour to adjust for Daylight Saving Time where and when it is observed.

SAINT JOHN A
NEW BRUNSWICK

45°18'58.000" N
65°53'24.000" W
108.80 m
8104901
71609
YSJ

Download Data

Hourly Data (September 2017)
Hourly Data Report for September 6, 2017
Temp Definition
°C
Dew Point Temp Definition
°C
Rel Hum Definition
%
Wind Dir Definition
10's deg

Wind Spd Definition
km/h
Visibility Definition
km
Stn Press Definition
kPa
Hmdx Definition


Wind Chill Definition


Weather Definition


TIME
00:00 Legend Double Dagger 16.4 15.4 94 22 21 4.0 100.03     Fog
01:00 Legend Double Dagger 15.7 14.9 95 20 21 4.0 99.99     Fog
02:00 Legend Double Dagger 15.6 14.8 95 21 17 4.8 100.01     Fog
03:00 Legend Double Dagger 16.0 15.1 94 20 30 8.1 100.00     Fog
04:00 Legend Double Dagger 16.0 15.2 95 21 28 4.8 100.01     Fog
05:00 Legend Double Dagger 15.8 15.2 96 20 30 4.8 100.05     Fog
06:00 Legend Double Dagger 15.7 15.4 99 20 22 0.8 100.11     Fog
07:00 Legend Double Dagger 15.7 15.6 99 20 20 0.4 100.19     Drizzle,Fog
08:00 Legend Double Dagger 15.6 15.5 99 20 19 1.2 100.23     Drizzle,Fog
09:00 Legend Double Dagger 16.3 16.1 99 19 17 3.2 100.24     Drizzle,Fog
10:00 Legend Double Dagger 17.5 17.1 97 20 25 4.8 100.27     Fog
11:00 Legend Double Dagger 18.6 17.8 95 20 22 12.9 100.32     Cloudy
12:00 Legend Double Dagger 18.1 17.7 98 20 26 9.7 100.30     Fog
13:00 Legend Double Dagger 18.3 18.1 99 20 22 1.2 100.26     Rain Showers,Fog
14:00 Legend Double Dagger 18.1 17.8 98 22 20 3.2 100.27     Thunderstorms,Heavy Rain Showers
15:00 Legend Double Dagger 17.6 17.4 99 21 22 4.8 100.24     Rain Showers,Fog
16:00 Legend Double Dagger 18.2 17.9 98 21 23 8.1 100.23     Rain Showers,Fog
17:00 Legend Double Dagger 18.6 18.1 97 21 31 8.1 100.25     Fog
18:00 Legend Double Dagger 17.2 17.0 98 21 21 3.2 100.30     Fog
19:00 Legend Double Dagger 17.1 16.9 99 21 20 2.4 100.32     Rain Showers,Fog
20:00 Legend Double Dagger 17.6 17.4 99 20 13 0.8 100.32     Rain Showers,Fog
21:00 Legend Double Dagger 17.6 17.5 99 21 15 3.2 100.39     Moderate Rain Showers,Fog
22:00 Legend Double Dagger 17.2 17.0 99 18 9 2.4 100.29     Fog
23:00 Legend Double Dagger 17.7 17.5 99 18 19 1.2 100.28     Rain Showers,Fog

Notes on Data Quality.

Legend

  • E = Estimated
  • M = Missing
  • NA = Not Available
  • ‡ = Partner data that is not subject to review by the National Climate Archives
Date modified: